Belfast Harbour, United Kingdom

10:43 PM IST on August 30, 2016 (GMT +0100)
Belfast City

Weather History for EGAC - August, 2013

Change the Weather History Date:

Saturday, August 31, 2013

  Actual Average Record
Temperature  
Mean Temperature 56 °F -  
Max Temperature 62 °F 60 °F 69 °F (2006)
Min Temperature 50 °F 50 °F 44 °F (2010)
Degree Days  
Heating Degree Days 9    
Growing Degree Days 6 (Base 50)    
Moisture  
Dew Point 45 °F    
Average Humidity 63    
Maximum Humidity 82    
Minimum Humidity 52    
Precipitation  
Precipitation 0.00 in - - ()
Sea Level Pressure  
Sea Level Pressure 30.32 in    
Wind  
Wind Speed 11 mph ()    
Max Wind Speed 16 mph    
Max Gust Speed -    
Visibility 6.2 miles    
Events      
Averages and records for this station are not official NWS values.
T = Trace of Precipitation, MM = Missing Value Source: Averaged Metar Reports

Daily Weather History Graph

Daily Weather History Graph

Search for Another Location

Airport or City:

Trip Planner

Search our weather history database for the weather conditions in past years. The results will help you decide how hot, cold, wet, or windy it might be!

Date:

Astronomy

Aug. 31, 2013 Rise Set
Actual Time 6:28 AM IST 8:17 PM IST
Civil Twilight 5:50 AM IST 8:55 PM IST
Nautical Twilight 5:03 AM IST 9:42 PM IST
Astronomical Twilight 4:08 AM IST 10:36 PM IST
Moon 1:16 AM IST (8/31) 5:32 PM IST (8/31)
Length of Visible Light 15h 04m
Length of Day
13h 48m
Waning Crescent, 23% of the Moon is Illuminated
Aug 31
Waning Crescent
Sep 5
New
Sep 12
First Quarter
Sep 19
Full
Sep 27
Last Quarter

Hourly Weather History & Observations

Time (IST) Temp. Dew Point Humidity Pressure Visibility Wind Dir Wind Speed Gust Speed Precip Events Conditions
6:20 AM 50.0 °F 44.6 °F 82% 30.24 in 6.2 mi SW 12.7 mph - N/A   Partly Cloudy
6:50 AM 50.0 °F 44.6 °F 82% 30.24 in 6.2 mi SW 11.5 mph - N/A   Partly Cloudy
7:20 AM 50.0 °F 44.6 °F 82% 30.24 in 6.2 mi SSW 10.4 mph - N/A   Partly Cloudy
7:50 AM 51.8 °F 44.6 °F 76% 30.27 in 6.2 mi SSW 8.1 mph - N/A   Partly Cloudy
8:20 AM 51.8 °F 46.4 °F 82% 30.27 in 6.2 mi SW 12.7 mph - N/A   Partly Cloudy
8:50 AM 53.6 °F 46.4 °F 77% 30.27 in - WSW 10.4 mph - N/A   Clear
9:20 AM 55.4 °F 44.6 °F 67% 30.27 in 6.2 mi West 11.5 mph - N/A   Partly Cloudy
9:50 AM 57.2 °F 46.4 °F 67% 30.27 in 6.2 mi West 13.8 mph - N/A   Partly Cloudy
10:20 AM 57.2 °F 46.4 °F 67% 30.27 in 6.2 mi West 12.7 mph - N/A   Partly Cloudy
10:50 AM 59.0 °F 46.4 °F 63% 30.30 in 6.2 mi West 13.8 mph - N/A   Partly Cloudy
11:20 AM 59.0 °F 44.6 °F 59% 30.30 in 6.2 mi West 13.8 mph - N/A   Partly Cloudy
11:50 AM 59.0 °F 44.6 °F 59% 30.27 in 6.2 mi WNW 15.0 mph - N/A   Partly Cloudy
12:20 PM 60.8 °F 44.6 °F 55% 30.30 in 6.2 mi West 13.8 mph - N/A   Partly Cloudy
12:50 PM 60.8 °F 44.6 °F 55% 30.30 in 6.2 mi West 13.8 mph - N/A   Scattered Clouds
1:20 PM 60.8 °F 44.6 °F 55% 30.30 in 6.2 mi West 12.7 mph - N/A   Scattered Clouds
1:50 PM 59.0 °F 48.2 °F 67% 30.33 in 6.2 mi West 15.0 mph - N/A   Scattered Clouds
2:20 PM 60.8 °F 44.6 °F 55% 30.33 in 6.2 mi West 13.8 mph - N/A   Scattered Clouds
2:50 PM 62.6 °F 44.6 °F 52% 30.33 in 6.2 mi WNW 16.1 mph - N/A   Scattered Clouds
3:20 PM 60.8 °F 46.4 °F 59% 30.33 in 6.2 mi NW 11.5 mph - N/A   Scattered Clouds
3:50 PM 60.8 °F 46.4 °F 59% 30.33 in 6.2 mi WNW 10.4 mph - N/A   Scattered Clouds
4:20 PM 62.6 °F 44.6 °F 52% 30.33 in 6.2 mi West 11.5 mph - N/A   Scattered Clouds
4:50 PM 60.8 °F 42.8 °F 52% 30.36 in 6.2 mi WNW 13.8 mph - N/A   Scattered Clouds
5:20 PM 60.8 °F 42.8 °F 52% 30.36 in 6.2 mi WNW 13.8 mph - N/A   Scattered Clouds
5:50 PM 60.8 °F 42.8 °F 52% 30.36 in 6.2 mi West 10.4 mph - N/A   Scattered Clouds
6:20 PM 60.8 °F 44.6 °F 55% 30.36 in 6.2 mi West 10.4 mph - N/A   Scattered Clouds
6:50 PM 59.0 °F 44.6 °F 59% 30.36 in 6.2 mi West 11.5 mph - N/A   Scattered Clouds
7:20 PM 59.0 °F 44.6 °F 59% 30.36 in 6.2 mi West 9.2 mph - N/A   Partly Cloudy
7:50 PM 59.0 °F 44.6 °F 59% 30.36 in 6.2 mi WSW 11.5 mph - N/A   Partly Cloudy
8:20 PM 59.0 °F 46.4 °F 63% 30.39 in 6.2 mi West 10.4 mph - N/A   Partly Cloudy
8:50 PM 57.2 °F 46.4 °F 67% 30.39 in 6.2 mi West 8.1 mph - N/A   Scattered Clouds
9:20 PM 57.2 °F 46.4 °F 67% 30.39 in 6.2 mi West 8.1 mph - N/A   Scattered Clouds